Weather observations for the past three days for
Joslin Field - Magic Valley Regional Airport
Imperial (Metric)
Date Time (mdt) Wind (mph) Vis. (mi.) Weather Sky Cond. Temperature (ºF) Relative Humidity Wind Chill (°F) Heat Index (°F) Pressure Precipitation (in)
Air Dwpt 6 hour altimeter (in) sea level (mb) 1 hr 3 hr 6 hr
Max. Min.
17 17:53 W 26 G 45 10.00 A Few Clouds and Windy FEW060 55.9 27 57 41 33% 29.92 1010.5 0.01
17 16:53 W 32 G 47 10.00 Fair and Windy CLR 55.9 28 34% 29.9 1009.9
17 15:53 W 25 G 46 10.00 A Few Clouds and Breezy FEW046 55 30.9 40% 29.88 1009.3
17 14:53 W 26 G 39 10.00 Partly Cloudy and Windy SCT033 SCT080 52 35.1 53% 29.89 1009.5 0.01
17 13:53 W 21 G 46 7.00 Light Rain and Breezy FEW020 BKN036 OVC110 41 35.1 79% 32 29.9 1010.7 0.01
17 12:53 W 15 G 24 10.00 Overcast SCT055 OVC070 46 34 63% 40 29.9 1009.9
17 11:53 W 14 G 25 9.00 Light Rain FEW017 BKN028 OVC046 42.1 36 46.9 42.1 79% 35 29.89 1009.6
17 10:53 W 16 10.00 Light Rain FEW027 BKN041 OVC060 42.1 36 79% 35 29.87 1009.2
17 09:53 W 16 G 28 10.00 Overcast BKN014 BKN022 OVC055 43 36 76% 36 29.85 1008.0
17 08:53 W 20 G 28 10.00 Overcast OVC055 46 35.1 66% 39 29.82 1006.6
17 07:53 W 15 10.00 Overcast BKN055 BKN080 OVC100 46.9 36 66% 41 29.8 1005.6
17 06:53 W 16 10.00 Overcast OVC090 46 36 68% 40 29.79 1005.1
17 05:53 SW 15 10.00 Overcast FEW070 BKN085 OVC110 46 36 55 46 68% 40 29.79 1004.9
17 04:53 W 20 G 28 10.00 Overcast OVC100 46 35.1 66% 39 29.77 1004.3
17 03:53 W 18 G 26 10.00 Overcast OVC100 46.9 34 61% 40 29.77 1004.4
17 02:53 W 15 G 23 10.00 Mostly Cloudy BKN120 48.9 30.9 50% 44 29.75 1003.7
17 01:53 SW 15 G 24 10.00 Fair CLR 51.1 24.1 35% 29.73 1002.8
17 00:53 W 16 G 25 10.00 Fair CLR 53.1 25 34% 29.72 1002.6
16 23:53 W 15 G 24 10.00 Fair CLR 55 28.9 68 52 37% 29.72 1002.4
16 22:53 W 8 10.00 Fair CLR 53.1 35.1 51% 29.72 1002.7
16 21:53 N 3 9.00 Fair CLR 57 37.9 49% 29.72 1002.7
16 20:53 E 7 10.00 Fair CLR 62.1 36 38% 29.72 1002.8
16 19:53 NE 8 10.00 Fair CLR 66.9 30.9 26% 29.74 1003.3
16 18:53 NE 7 10.00 Fair CLR 66.9 27 22% 29.76 1004.1
16 17:53 N 6 10.00 Fair CLR 66.9 27 69.1 59 22% 29.79 1005.1
16 16:53 N 9 10.00 Fair CLR 66.9 27 22% 29.82 1006.5
16 15:53 Calm 10.00 Fair CLR 66.9 27 22% 29.85 1007.3
16 14:53 N 8 10.00 Fair CLR 66.9 27 22% 29.89 1008.5
16 13:53 W 9 G 22 10.00 Fair CLR 64.9 26.1 23% 29.93 1010.0
16 12:53 Vrbl 7 10.00 Fair CLR 62.1 24.1 23% 29.95 1010.7
16 11:53 Vrbl 5 10.00 Fair CLR 60.1 25 61 42.1 26% 29.98 1011.8
16 10:53 NW 9 10.00 Fair CLR 57.9 28 32% 30.01 1012.9
16 09:53 W 9 10.00 Fair CLR 55 27 34% 30.03 1013.4
16 08:53 W 10 10.00 Fair CLR 52 26.1 37% 30.04 1014.0
16 07:53 W 16 10.00 Fair CLR 48.9 25 39% 44 30.03 1013.7
16 06:53 SW 15 G 23 10.00 Fair CLR 45 24.1 44% 39 30.03 1013.6
16 05:53 SW 15 10.00 Fair CLR 44.1 24.1 53.1 43 45% 38 30.02 1012.9
16 04:53 SW 16 10.00 Fair CLR 45 23 42% 38 30.01 1012.5
16 03:53 SW 15 10.00 Fair CLR 46.9 21.9 37% 41 30 1012.2
16 02:53 SW 13 10.00 Fair CLR 48 21.9 36% 43 29.99 1011.7
16 01:53 SW 12 10.00 Fair CLR 48.9 24.1 38% 45 29.99 1011.5
16 00:53 SW 9 10.00 Fair CLR 52 24.1 34% 29.99 1011.3
15 23:53 W 9 10.00 Fair CLR 52 26.1 69.1 52 37% 30 1011.8
15 22:53 W 9 10.00 Fair CLR 54 26.1 34% 30 1011.6
15 21:53 W 10 10.00 Fair CLR 57.9 26.1 29% 30 1011.3
15 20:53 W 10 10.00 Fair CLR 60.1 25 26% 29.99 1010.9
15 19:53 W 13 10.00 Fair CLR 63 25 24% 29.99 1011.0
15 18:53 NW 18 10.00 Fair CLR 66 25 21% 29.98 1010.7
15 17:53 NW 17 10.00 Fair CLR 69.1 28 73 68 22% 29.97 1010.2
15 16:53 NW 20 G 25 10.00 Fair CLR 71.1 33.1 25% 29.96 1010.0
15 15:53 NW 22 G 35 10.00 Fair and Breezy CLR 71.1 36 28% 29.96 1009.6
15 14:53 NW 17 G 29 10.00 Fair CLR 72 36 27% 29.96 1009.5
15 13:53 NW 17 G 26 10.00 Fair CLR 72 36 27% 29.96 1009.7
15 12:53 NW 21 G 31 10.00 Fair and Breezy CLR 71.1 35.1 27% 29.96 1009.3
15 11:53 NW 20 G 28 10.00 Fair CLR 70 36 71.1 59 29% 29.96 1009.3
15 10:53 NW 21 G 29 10.00 Fair and Breezy CLR 70 35.1 28% 29.95 1009.2
15 09:53 NW 21 G 26 10.00 Fair and Breezy CLR 70 37.9 31% 29.94 1009.0
15 08:53 W 13 10.00 Fair CLR 70 36 29% 29.92 1007.9
15 07:53 NW 10 10.00 Fair CLR 62.1 36 38% 29.92 1007.6
15 06:53 SW 12 10.00 Fair CLR 59 35.1 41% 29.9 1006.8
15 05:53 SW 12 10.00 Fair CLR 60.1 34 68 57.9 38% 29.89 1006.4
15 04:53 SW 14 10.00 Fair CLR 59 34 39% 29.88 1005.9
15 03:53 SW 15 G 24 10.00 Fair CLR 61 34 36% 29.87 1005.7
15 02:53 SW 18 G 28 10.00 Fair CLR 63 33.1 33% 29.88 1005.8
15 01:53 SW 13 10.00 Fair CLR 61 34 36% 29.88 1006.1
15 00:53 SW 15 10.00 Fair CLR 66 33.1 29% 29.88 1005.8
14 23:53 W 10 10.00 Fair CLR 64.9 36 86 62.1 34% 29.87 1005.6
14 22:53 W 9 10.00 Fair CLR 68 37 32% 29.88 1005.8
14 21:53 W 3 10.00 Fair CLR 62.1 48 60% 29.87 1005.9
14 20:53 Calm 10.00 Fair CLR 71.1 51.1 49% 29.86 1005.5
14 19:53 NW 6 10.00 Fair CLR 82 34 18% 80 29.88 1005.4
14 18:53 N 10 10.00 Fair CLR 84.9 36 17% 82 29.89 1005.9
Date Time (mdt) Wind (mph) Vis. (mi.) Weather Sky Cond. Air Dwpt Max. Min. Relative Humidity Wind Chill (°F) Heat Index (°F) altimeter (in) sea level (mb) 1 hr 3 hr 6 hr
6 hour
Temperature (ºF) Pressure Precipitation (in)